Weather History for KCNK - August, 2013

Change the Weather History Date:

Saturday, August 3, 2013

  Actual Average Record
Temperature  
Mean Temperature 72 °F 79 °F  
Max Temperature 78 °F 90 °F 110 °F (1918)
Min Temperature 66 °F 67 °F 50 °F (1974)
Degree Days  
Heating Degree Days 0 0  
Month to date heating degree days 0 0  
Since 1 June heating degree days 22 13  
Since 1 July heating degree days 7 0  
Cooling Degree Days 7 14  
Month to date cooling degree days 28 42  
Year to date cooling degree days 780 832  
Since 1 June cooling degree days 677 743  
Growing Degree Days 22 (Base 50)    
Moisture  
Dew Point 67 °F    
Average Humidity 81    
Maximum Humidity 93    
Minimum Humidity 69    
Precipitation  
Precipitation 0.00 in 0.11 in 1.74 in (1985)
Month to date precipitation 5.37 0.33  
Year to date precipitation 22.36 18.29  
Snow  
Snow 0.00 in 0.00 in 0.00 in ()
Month to date snowfall 0.0 0.0  
Year to date snowfall 20.3 13.7  
Since 1 July snowfall 0.0 0.0  
Snow Depth 0.00 in    
Sea Level Pressure  
Sea Level Pressure 30.02 in    
Wind  
Wind Speed 10 mph (ENE)    
Max Wind Speed 18 mph    
Max Gust Speed 26 mph    
Visibility 10 miles    
Events      
T = Trace of Precipitation, MM = Missing Value Source: NWS Daily Summary

Daily Weather History Graph

Daily Weather History Graph

Search for Another Location

Airport or City:

Trip Planner

Search our weather history database for the weather conditions in past years. The results will help you decide how hot, cold, wet, or windy it might be!

Date:

Astronomy

Aug. 03, 2013 Rise Set
Actual Time 6:32 AM CDT 8:40 PM CDT
Civil Twilight 6:02 AM CDT 9:10 PM CDT
Nautical Twilight 5:25 AM CDT 9:46 PM CDT
Astronomical Twilight 4:45 AM CDT 10:26 PM CDT
Moon 3:42 AM CDT (8/3) 6:24 PM CDT (8/3)
Length of Visible Light 15h 08m
Length of Day
14h 08m
Waning Crescent, 9% of the Moon is Illuminated
Aug 3
Waning Crescent
Aug 6
New
Aug 14
First Quarter
Aug 20
Full
Aug 28
Last Quarter

Hourly Weather History & Observations

Time (CDT) Temp. Dew Point Humidity Pressure Visibility Wind Dir Wind Speed Gust Speed Precip Events Conditions
12:41 AM 73.4 °F 69.8 °F 88% 29.98 in 10.0 mi East 3.5 mph - N/A   Mostly Cloudy
12:55 AM 73.0 °F 69.1 °F 87% 29.94 in 10.0 mi ENE 4.6 mph - N/A   Overcast
1:55 AM 73.0 °F 69.1 °F 87% 29.93 in 10.0 mi ENE 6.9 mph - N/A   Overcast
2:12 AM 71.6 °F 68.0 °F 88% 29.97 in 10.0 mi NE 6.9 mph - N/A   Scattered Clouds
2:55 AM 72.0 °F 69.1 °F 91% 29.93 in 10.0 mi ENE 8.1 mph - N/A   Partly Cloudy
3:16 AM 71.6 °F 69.8 °F 94% 29.97 in 10.0 mi ENE 8.1 mph - N/A   Mostly Cloudy
3:26 AM 71.6 °F 68.0 °F 88% 29.97 in 10.0 mi ENE 9.2 mph - N/A   Scattered Clouds
3:55 AM 71.1 °F 68.0 °F 90% 29.94 in 10.0 mi ENE 6.9 mph - N/A   Mostly Cloudy
4:01 AM 71.6 °F 68.0 °F 88% 29.99 in 10.0 mi ENE 9.2 mph - N/A   Scattered Clouds
4:10 AM 71.6 °F 68.0 °F 88% 29.99 in 10.0 mi ENE 11.5 mph 18.4 mph N/A   Mostly Cloudy
4:22 AM 69.8 °F 66.2 °F 88% 29.99 in 10.0 mi ENE 12.7 mph - N/A   Mostly Cloudy
4:55 AM 69.1 °F 66.0 °F 90% 29.95 in 10.0 mi ENE 10.4 mph - N/A   Overcast
5:25 AM 68.0 °F 64.4 °F 88% 30.00 in 10.0 mi ENE 11.5 mph - N/A   Overcast
5:55 AM 66.9 °F 64.0 °F 90% 29.97 in 10.0 mi ENE 10.4 mph - N/A   Overcast
6:13 AM 66.2 °F 64.4 °F 94% 30.02 in 10.0 mi ENE 8.1 mph - N/A   Scattered Clouds
6:55 AM 66.0 °F 63.0 °F 90% 29.99 in 10.0 mi ENE 6.9 mph - N/A   Mostly Cloudy
7:55 AM 66.9 °F 63.0 °F 87% 30.01 in 10.0 mi ENE 8.1 mph - N/A   Overcast
8:55 AM 68.0 °F 62.1 °F 81% 30.03 in 10.0 mi ENE 12.7 mph - N/A   Partly Cloudy
9:55 AM 70.0 °F 62.1 °F 76% 30.04 in 10.0 mi ENE 11.5 mph - N/A   Scattered Clouds
10:55 AM 71.1 °F 64.0 °F 78% 30.04 in 10.0 mi ENE 13.8 mph - N/A   Mostly Cloudy
11:55 AM 75.0 °F 66.0 °F 73% 30.05 in 10.0 mi ENE 17.3 mph 21.9 mph N/A   Partly Cloudy
12:55 PM 77.0 °F 66.9 °F 71% 30.06 in 10.0 mi ENE 15.0 mph 20.7 mph N/A   Mostly Cloudy
1:55 PM 78.1 °F 68.0 °F 71% 30.06 in 10.0 mi East 9.2 mph 20.7 mph N/A   Scattered Clouds
2:55 PM 77.0 °F 66.9 °F 71% 30.07 in 10.0 mi ENE 12.7 mph - N/A   Overcast
3:55 PM 77.0 °F 68.0 °F 74% 30.07 in 10.0 mi ENE 10.4 mph - N/A   Overcast
4:55 PM 75.9 °F 66.9 °F 74% 30.06 in 10.0 mi ENE 11.5 mph - N/A   Overcast
5:55 PM 77.0 °F 66.9 °F 71% 30.06 in 10.0 mi East 8.1 mph - N/A   Overcast
6:55 PM 77.0 °F 66.9 °F 71% 30.04 in 10.0 mi East 9.2 mph - N/A   Scattered Clouds
7:55 PM 75.9 °F 66.9 °F 74% 30.04 in 10.0 mi East 8.1 mph - N/A   Clear
8:55 PM 73.0 °F 68.0 °F 84% 30.05 in 10.0 mi SE 9.2 mph - N/A   Clear
9:55 PM 73.0 °F 68.0 °F 84% 30.10 in 10.0 mi NNE 6.9 mph - N/A   Mostly Cloudy
10:15 PM 73.4 °F 68.0 °F 83% 30.14 in 10.0 mi NE 9.2 mph - N/A   Overcast
10:55 PM 73.0 °F 66.9 °F 81% 30.10 in 10.0 mi ENE 9.2 mph - N/A   Overcast
11:55 PM 73.0 °F 66.0 °F 79% 30.11 in 10.0 mi ENE 10.4 mph - N/A   Overcast